QPF
0.00 0.00 0.00 0.00 0.00 0.00 0.00 0.00 0.01 0.01 0.00 0.00 0.00 0.00 0.00 0.00 0.01 0.00 0.00 0.01 0.01 0.01 0.01 0.01 0.00 0.01 0.01 0.01 0.01 0.01 0.02 0.03 0.04 0.05 0.05 0.06 0.08 0.13
0.00 0.00 0.00 0.00 0.00 0.00 0.00 0.00 0.00 0.01 0.01 0.00 0.00 0.00 0.00 0.00 0.01 0.00 0.00 0.01 0.01 0.00 0.00 0.00 0.00 0.01 0.01 0.01 0.01 0.01 0.02 0.02 0.03 0.05 0.06 0.06 0.07 0.08
0.00 0.00 0.00 0.00 0.00 0.00 0.00 0.00 0.00 0.00 0.01 0.00 0.00 0.00 0.00 0.00 0.00 0.00 0.00 0.00 0.00 0.00 0.00 0.00 0.00 0.00 0.01 0.01 0.01 0.01 0.01 0.02 0.03 0.03 0.04 0.05 0.06 0.06
0.00 0.00 0.00 0.00 0.00 0.00 0.00 0.00 0.00 0.00 0.00 0.00 0.00 0.00 0.00 0.00 0.00 0.00 0.00 0.00 0.00 0.00 0.00 0.00 0.00 0.00 0.00 0.00 0.01 0.01 0.01 0.02 0.02 0.02 0.02 0.03 0.04 0.04
0.00 0.00 0.00 0.00 0.00 0.00 0.00 0.00 0.00 0.00 0.00 0.00 0.00 0.00 0.01 0.01 0.00 0.00 0.00 0.00 0.00 0.00 0.00 0.00 0.00 0.00 0.00 0.00 0.00 0.01 0.01 0.01 0.01 0.01 0.02 0.03 0.03 0.04
0.00 0.00 0.00 0.00 0.00 0.00 0.00 0.00 0.00 0.00 0.00 0.00 0.00 0.00 0.00 0.00 0.00 0.00 0.00 0.00 0.00 0.00 0.00 0.00 0.00 0.00 0.00 0.00 0.00 0.00 0.00 0.01 0.01 0.01 0.02 0.02 0.03 0.03
0.00 0.00 0.00 0.00 0.00 0.00 0.00 0.00 0.00 0.00 0.00 0.00 0.00 0.00 0.00 0.00 0.00 0.00 0.00 0.00 0.00 0.00 0.00 0.00 0.00 0.00 0.00 0.00 0.00 0.00 0.00 0.01 0.01 0.01 0.01 0.01 0.01 0.02
0.00 0.00 0.00 0.00 0.00 0.00 0.00 0.00 0.00 0.00 0.00 0.00 0.00 0.00 0.00 0.00 0.00 0.00 0.00 0.00 0.00 0.00 0.00 0.00 0.00 0.00 0.00 0.00 0.00 0.00 0.00 0.00 0.01 0.01 0.01 0.01 0.01 0.01
0.00 0.00 0.00 0.00 0.00 0.00 0.00 0.00 0.00 0.00 0.00 0.00 0.00 0.00 0.00 0.00 0.00 0.00 0.00 0.00 0.00 0.00 0.00 0.00 0.00 0.00 0.00 0.00 0.00 0.00 0.00 0.00 0.00 0.00 0.00 0.00 0.00 0.00
0.00 0.00 0.00 0.00 0.00 0.00 0.00 0.00 0.00 0.00 0.00 0.00 0.00 0.00 0.00 0.00 0.00 0.00 0.00 0.00 0.00 0.00 0.00 0.00 0.00 0.00 0.00 0.00 0.00 0.00 0.00 0.00 0.00 0.00 0.00 0.00 0.00 0.00
0.00 0.00 0.00 0.00 0.00 0.00 0.00 0.00 0.00 0.00 0.00 0.00 0.00 0.00 0.00 0.00 0.00 0.00 0.00 0.00 0.00 0.00 0.00 0.00 0.00 0.00 0.00 0.00 0.00 0.00 0.00 0.00 0.00 0.00 0.00 0.00 0.00 0.00
0.00 0.00 0.00 0.00 0.00 0.00 0.00 0.00 0.00 0.00 0.00 0.00 0.00 0.00 0.00 0.00 0.00 0.00 0.00 0.00 0.00 0.00 0.00 0.00 0.00 0.00 0.00 0.00 0.00 0.00 0.00 0.00 0.00 0.00 0.00 0.00 0.00 0.00
0.00 0.00 0.00 0.00 0.00 0.00 0.00 0.00 0.00 0.00 0.00 0.00 0.00 0.00 0.00 0.00 0.00 0.00 0.00 0.00 0.00 0.00 0.00 0.00 0.00 0.00 0.00 0.00 0.00 0.00 0.00 0.00 0.00 0.00 0.00 0.00 0.00 0.00
0.00 0.00 0.00 0.00 0.00 0.00 0.00 0.00 0.00 0.00 0.00 0.00 0.00 0.00 0.00 0.00 0.00 0.00 0.00 0.00 0.00 0.00 0.00 0.00 0.00 0.00 0.00 0.00 0.00 0.00 0.00 0.00 0.00 0.00 0.00 0.00 0.00 0.00
0.00 0.00 0.00 0.00 0.00 0.00 0.00 0.00 0.00 0.00 0.00 0.00 0.00 0.00 0.00 0.00 0.00 0.00 0.00 0.00 0.00 0.00 0.00 0.00 0.00 0.00 0.00 0.00 0.00 0.00 0.00 0.00 0.00 0.00 0.00 0.00 0.00 0.00
0.00 0.00 0.00 0.00 0.00 0.00 0.00 0.00 0.00 0.00 0.00 0.00 0.00 0.00 0.00 0.00 0.00 0.00 0.00 0.00 0.00 0.00 0.00 0.00 0.00 0.00 0.00 0.00 0.00 0.00 0.00 0.00 0.00 0.00 0.00 0.00 0.00 0.00
0.00 0.00 0.00 0.00 0.00 0.00 0.00 0.00 0.00 0.00 0.00 0.00 0.00 0.00 0.00 0.00 0.00 0.00 0.00 0.00 0.00 0.00 0.00 0.00 0.00 0.00 0.00 0.00 0.00 0.00 0.00 0.00 0.00 0.00 0.00 0.00 0.00 0.00
0.00 0.00 0.00 0.00 0.00 0.00 0.00 0.00 0.00 0.00 0.00 0.00 0.00 0.00 0.00 0.00 0.00 0.00 0.00 0.00 0.00 0.00 0.00 0.00 0.00 0.00 0.00 0.00 0.00 0.00 0.00 0.00 0.00 0.00 0.00 0.00 0.00 0.00
0.00 0.00 0.00 0.00 0.00 0.00 0.00 0.00 0.00 0.00 0.00 0.00 0.00 0.00 0.00 0.00 0.00 0.00 0.00 0.00 0.00 0.00 0.00 0.00 0.00 0.00 0.00 0.00 0.00 0.00 0.00 0.00 0.00 0.00 0.00 0.00 0.00 0.00
0.00 0.00 0.00 0.00 0.00 0.00 0.00 0.01 0.01 0.01 0.00 0.00 0.00 0.00 0.00 0.00 0.00 0.00 0.00 0.00 0.00 0.00 0.00 0.00 0.00 0.00 0.00 0.00 0.00 0.00 0.00 0.00 0.00 0.00 0.00 0.00 0.00 0.00
0.00 0.00 0.01 0.01 0.01 0.01 0.01 0.01 0.01 0.01 0.01 0.01 0.00 0.00 0.00 0.00 0.00 0.00 0.00 0.00 0.00 0.00 0.00 0.00 0.00 0.00 0.00 0.01 0.01 0.00 0.00 0.00 0.00 0.00 0.00 0.00 0.00 0.00
0.01 0.01 0.01 0.01 0.01 0.01 0.01 0.01 0.02 0.01 0.01 0.01 0.01 0.01 0.01 0.01 0.01 0.00 0.00 0.00 0.00 0.00 0.00 0.00 0.00 0.00 0.01 0.01 0.00 0.00 0.00 0.00 0.00 0.00 0.00 0.00 0.01 0.00
0.01 0.01 0.01 0.01 0.01 0.01 0.01 0.01 0.01 0.01 0.01 0.01 0.01 0.01 0.01 0.01 0.01 0.01 0.01 0.01 0.01 0.00 0.00 0.00 0.00 0.01 0.01 0.00 0.00 0.00 0.00 0.00 0.00 0.00 0.00 0.00 0.00 0.00
MSLP
1019.67 1019.94 1020.15 1020.29 1020.34 1020.32 1020.24 1020.13 1020.03 1019.96 1019.94 1019.99 1020.10 1020.26 1020.44 1020.61 1020.75 1020.84 1020.87 1020.84 1020.78 1020.69 1020.59 1020.50 1020.41 1020.31 1020.19 1020.04 1019.83 1019.56 1019.23 1018.86 1018.47 1018.09 1017.75 1017.50 1017.37 1017.36
1019.72 1020.00 1020.21 1020.35 1020.41 1020.38 1020.30 1020.19 1020.09 1020.03 1020.02 1020.09 1020.21 1020.39 1020.59 1020.78 1020.93 1021.03 1021.08 1021.08 1021.03 1020.97 1020.89 1020.82 1020.74 1020.66 1020.54 1020.38 1020.14 1019.84 1019.45 1019.00 1018.52 1018.04 1017.60 1017.23 1016.99 1016.88
1019.78 1020.05 1020.27 1020.41 1020.47 1020.45 1020.38 1020.27 1020.18 1020.13 1020.13 1020.21 1020.36 1020.55 1020.76 1020.97 1021.14 1021.26 1021.33 1021.35 1021.32 1021.28 1021.22 1021.16 1021.10 1021.02 1020.90 1020.73 1020.48 1020.15 1019.73 1019.24 1018.71 1018.16 1017.65 1017.22 1016.90 1016.72
1019.84 1020.12 1020.34 1020.49 1020.56 1020.55 1020.48 1020.39 1020.32 1020.28 1020.30 1020.40 1020.56 1020.77 1020.99 1021.21 1021.40 1021.54 1021.62 1021.66 1021.65 1021.62 1021.58 1021.53 1021.47 1021.39 1021.27 1021.09 1020.84 1020.50 1020.07 1019.58 1019.03 1018.48 1017.95 1017.48 1017.13 1016.91
1019.92 1020.20 1020.43 1020.59 1020.67 1020.68 1020.63 1020.56 1020.50 1020.49 1020.53 1020.64 1020.81 1021.03 1021.27 1021.50 1021.70 1021.85 1021.95 1021.99 1022.00 1021.98 1021.94 1021.90 1021.83 1021.75 1021.63 1021.45 1021.20 1020.87 1020.47 1020.00 1019.49 1018.96 1018.46 1018.01 1017.66 1017.43
1019.99 1020.29 1020.53 1020.71 1020.80 1020.83 1020.81 1020.76 1020.73 1020.73 1020.79 1020.91 1021.09 1021.32 1021.56 1021.79 1022.00 1022.16 1022.27 1022.33 1022.35 1022.33 1022.30 1022.25 1022.18 1022.09 1021.96 1021.79 1021.55 1021.25 1020.89 1020.47 1020.02 1019.56 1019.12 1018.73 1018.41 1018.20
1020.04 1020.35 1020.61 1020.81 1020.93 1020.98 1020.98 1020.96 1020.95 1020.97 1021.04 1021.17 1021.36 1021.58 1021.82 1022.05 1022.26 1022.43 1022.55 1022.62 1022.64 1022.63 1022.60 1022.55 1022.47 1022.38 1022.25 1022.08 1021.87 1021.60 1021.29 1020.94 1020.57 1020.20 1019.84 1019.53 1019.28 1019.10
1020.04 1020.37 1020.65 1020.86 1021.01 1021.09 1021.12 1021.12 1021.13 1021.17 1021.25 1021.38 1021.57 1021.78 1022.02 1022.25 1022.45 1022.62 1022.74 1022.82 1022.86 1022.86 1022.83 1022.78 1022.70 1022.61 1022.48 1022.32 1022.13 1021.90 1021.65 1021.37 1021.08 1020.80 1020.54 1020.31 1020.13 1020.00
1019.96 1020.31 1020.61 1020.85 1021.02 1021.13 1021.19 1021.22 1021.25 1021.30 1021.39 1021.52 1021.70 1021.90 1022.12 1022.34 1022.54 1022.71 1022.84 1022.93 1022.98 1022.99 1022.97 1022.93 1022.86 1022.77 1022.65 1022.50 1022.33 1022.14 1021.94 1021.72 1021.51 1021.31 1021.13 1020.98 1020.87 1020.79
1019.80 1020.16 1020.48 1020.74 1020.94 1021.08 1021.17 1021.23 1021.29 1021.35 1021.45 1021.58 1021.74 1021.93 1022.14 1022.34 1022.54 1022.70 1022.84 1022.94 1023.01 1023.04 1023.04 1023.01 1022.95 1022.87 1022.77 1022.64 1022.49 1022.33 1022.16 1022.00 1021.85 1021.71 1021.60 1021.51 1021.45 1021.41
1019.55 1019.92 1020.25 1020.54 1020.77 1020.94 1021.06 1021.16 1021.24 1021.32 1021.43 1021.55 1021.71 1021.89 1022.08 1022.27 1022.46 1022.63 1022.77 1022.89 1022.97 1023.03 1023.05 1023.05 1023.01 1022.95 1022.87 1022.76 1022.63 1022.49 1022.35 1022.22 1022.10 1022.01 1021.94 1021.89 1021.86 1021.84
1019.22 1019.60 1019.95 1020.26 1020.52 1020.72 1020.89 1021.02 1021.13 1021.23 1021.35 1021.48 1021.63 1021.80 1021.98 1022.17 1022.35 1022.52 1022.68 1022.81 1022.92 1023.01 1023.06 1023.08 1023.08 1023.04 1022.97 1022.88 1022.77 1022.65 1022.53 1022.42 1022.32 1022.24 1022.18 1022.15 1022.13 1022.12
1018.83 1019.22 1019.58 1019.92 1020.21 1020.46 1020.66 1020.82 1020.97 1021.10 1021.23 1021.37 1021.52 1021.69 1021.87 1022.05 1022.24 1022.42 1022.59 1022.74 1022.88 1022.99 1023.08 1023.14 1023.16 1023.15 1023.11 1023.04 1022.94 1022.83 1022.72 1022.61 1022.51 1022.43 1022.37 1022.33 1022.30 1022.28
1018.41 1018.80 1019.19 1019.54 1019.87 1020.15 1020.39 1020.59 1020.77 1020.93 1021.08 1021.24 1021.40 1021.57 1021.75 1021.94 1022.14 1022.33 1022.52 1022.70 1022.86 1023.01 1023.12 1023.21 1023.26 1023.28 1023.26 1023.21 1023.13 1023.02 1022.91 1022.80 1022.69 1022.59 1022.51 1022.44 1022.39 1022.34
1017.97 1018.37 1018.77 1019.14 1019.49 1019.81 1020.08 1020.32 1020.53 1020.72 1020.90 1021.07 1021.25 1021.44 1021.64 1021.84 1022.05 1022.26 1022.47 1022.67 1022.86 1023.03 1023.17 1023.28 1023.36 1023.40 1023.40 1023.36 1023.29 1023.19 1023.07 1022.94 1022.82 1022.69 1022.58 1022.48 1022.39 1022.30
1017.50 1017.91 1018.32 1018.71 1019.08 1019.42 1019.72 1019.99 1020.23 1020.45 1020.66 1020.86 1021.06 1021.27 1021.48 1021.71 1021.94 1022.17 1022.40 1022.62 1022.83 1023.02 1023.18 1023.31 1023.41 1023.46 1023.47 1023.44 1023.37 1023.26 1023.14 1023.00 1022.85 1022.70 1022.55 1022.41 1022.27 1022.14
1016.99 1017.41 1017.82 1018.22 1018.61 1018.96 1019.28 1019.57 1019.84 1020.09 1020.32 1020.55 1020.78 1021.02 1021.26 1021.51 1021.76 1022.01 1022.26 1022.50 1022.73 1022.93 1023.11 1023.25 1023.35 1023.40 1023.42 1023.38 1023.31 1023.20 1023.07 1022.91 1022.73 1022.55 1022.37 1022.18 1022.00 1021.82
1016.42 1016.83 1017.25 1017.65 1018.04 1018.40 1018.73 1019.04 1019.33 1019.60 1019.86 1020.12 1020.38 1020.65 1020.92 1021.20 1021.47 1021.75 1022.02 1022.27 1022.51 1022.72 1022.89 1023.03 1023.13 1023.19 1023.19 1023.16 1023.08 1022.96 1022.81 1022.63 1022.43 1022.22 1021.99 1021.77 1021.54 1021.32
1015.75 1016.17 1016.58 1016.98 1017.36 1017.72 1018.05 1018.37 1018.68 1018.97 1019.26 1019.55 1019.85 1020.14 1020.45 1020.75 1021.05 1021.35 1021.63 1021.90 1022.14 1022.35 1022.53 1022.66 1022.75 1022.80 1022.80 1022.75 1022.66 1022.53 1022.37 1022.18 1021.95 1021.71 1021.46 1021.19 1020.92 1020.66
1014.98 1015.39 1015.79 1016.18 1016.56 1016.91 1017.25 1017.58 1017.90 1018.21 1018.53 1018.84 1019.17 1019.50 1019.83 1020.16 1020.49 1020.81 1021.10 1021.38 1021.62 1021.83 1022.00 1022.13 1022.22 1022.26 1022.25 1022.20 1022.10 1021.96 1021.79 1021.58 1021.35 1021.08 1020.80 1020.50 1020.20 1019.90
1014.12 1014.53 1014.92 1015.29 1015.66 1016.01 1016.35 1016.68 1017.01 1017.34 1017.68 1018.02 1018.38 1018.73 1019.10 1019.45 1019.80 1020.14 1020.45 1020.73 1020.98 1021.19 1021.36 1021.49 1021.57 1021.61 1021.60 1021.55 1021.45 1021.31 1021.14 1020.92 1020.68 1020.40 1020.10 1019.78 1019.45 1019.12
1013.21 1013.60 1013.98 1014.34 1014.70 1015.04 1015.38 1015.72 1016.06 1016.41 1016.77 1017.14 1017.51 1017.90 1018.28 1018.66 1019.03 1019.38 1019.70 1019.99 1020.25 1020.47 1020.64 1020.77 1020.86 1020.90 1020.91 1020.86 1020.78 1020.65 1020.48 1020.27 1020.02 1019.74 1019.43 1019.10 1018.75 1018.41
1012.28 1012.67 1013.03 1013.39 1013.73 1014.07 1014.41 1014.75 1015.10 1015.47 1015.84 1016.23 1016.63 1017.04 1017.44 1017.84 1018.22 1018.58 1018.92 1019.22 1019.48 1019.71 1019.90 1020.04 1020.15 1020.21 1020.23 1020.20 1020.14 1020.03 1019.87 1019.67 1019.43 1019.15 1018.84 1018.51 1018.16 1017.80
Thickness
5572 5570 5568 5565 5563 5560 5559 5558 5557 5559 5558 5549 5542 5538 5536 5534 5532 5530 5529 5528 5527 5526 5526 5527 5527 5528 5529 5531 5533 5535 5536 5537 5538 5539 5539 5540 5541 5540
5561 5559 5556 5553 5551 5548 5546 5545 5543 5543 5545 5538 5531 5527 5523 5521 5519 5517 5516 5516 5515 5514 5514 5514 5515 5516 5518 5520 5522 5524 5526 5528 5530 5531 5532 5533 5534 5534
5549 5547 5544 5541 5538 5536 5533 5532 5530 5529 5530 5525 5519 5515 5512 5509 5507 5505 5504 5503 5503 5502 5502 5502 5504 5504 5506 5508 5510 5513 5515 5518 5520 5522 5524 5525 5525 5526
5538 5535 5532 5529 5526 5523 5520 5518 5517 5515 5515 5514 5507 5503 5500 5497 5495 5493 5492 5491 5491 5491 5491 5491 5492 5493 5495 5497 5498 5501 5504 5506 5509 5511 5513 5515 5516 5517
5527 5524 5521 5518 5515 5511 5508 5506 5504 5503 5502 5501 5497 5492 5488 5486 5483 5482 5480 5480 5479 5479 5480 5480 5481 5482 5484 5486 5487 5489 5492 5495 5497 5499 5501 5503 5505 5506
5515 5512 5510 5507 5503 5500 5497 5494 5492 5491 5490 5488 5486 5481 5477 5474 5473 5470 5469 5468 5467 5468 5469 5470 5470 5472 5473 5475 5477 5478 5481 5483 5486 5488 5489 5491 5493 5494
5503 5501 5498 5496 5493 5489 5486 5483 5480 5478 5477 5476 5474 5471 5467 5464 5462 5460 5459 5457 5457 5457 5459 5460 5461 5462 5463 5464 5466 5467 5469 5472 5474 5475 5477 5478 5480 5481
5492 5489 5487 5484 5482 5479 5476 5473 5470 5468 5466 5464 5462 5461 5457 5455 5452 5451 5449 5448 5448 5447 5448 5449 5450 5451 5452 5454 5455 5457 5459 5461 5462 5463 5465 5466 5467 5468
5481 5478 5475 5473 5470 5466 5464 5461 5460 5459 5457 5454 5452 5450 5448 5446 5443 5441 5440 5438 5438 5438 5438 5440 5440 5441 5442 5443 5445 5447 5448 5449 5451 5451 5452 5453 5454 5455
5471 5468 5465 5461 5459 5455 5452 5449 5447 5446 5445 5444 5443 5441 5440 5438 5436 5434 5432 5430 5429 5429 5429 5430 5430 5431 5433 5434 5435 5437 5437 5438 5439 5440 5440 5441 5441 5442
5460 5458 5455 5452 5450 5447 5443 5440 5437 5436 5435 5435 5433 5432 5431 5429 5427 5425 5423 5421 5421 5421 5420 5420 5421 5421 5423 5424 5425 5425 5426 5427 5427 5428 5428 5428 5429 5429
5450 5448 5447 5444 5442 5440 5435 5431 5428 5427 5426 5425 5423 5422 5421 5420 5419 5417 5416 5412 5412 5412 5412 5411 5411 5411 5412 5414 5414 5415 5415 5415 5416 5416 5416 5416 5417 5417
5442 5439 5438 5437 5435 5433 5429 5424 5423 5421 5418 5416 5414 5413 5412 5411 5411 5409 5408 5406 5404 5403 5404 5402 5400 5399 5398 5400 5403 5404 5404 5404 5404 5404 5404 5404 5405 5405
5436 5433 5431 5430 5428 5426 5423 5419 5418 5415 5411 5408 5407 5406 5404 5404 5403 5402 5400 5399 5397 5396 5395 5394 5391 5389 5387 5388 5390 5392 5393 5393 5393 5392 5392 5392 5392 5392
5430 5427 5425 5423 5421 5419 5417 5414 5412 5408 5405 5403 5401 5400 5399 5398 5396 5394 5392 5391 5390 5389 5387 5386 5383 5380 5378 5377 5378 5378 5379 5382 5381 5380 5380 5379 5379 5380
5424 5422 5420 5418 5415 5412 5410 5408 5405 5402 5400 5398 5397 5395 5393 5391 5389 5387 5385 5383 5381 5380 5379 5377 5375 5372 5369 5368 5367 5367 5367 5367 5370 5369 5368 5368 5369 5369
5417 5413 5411 5408 5407 5405 5403 5401 5399 5397 5396 5393 5391 5389 5387 5385 5383 5380 5377 5375 5372 5371 5370 5368 5366 5364 5362 5360 5359 5360 5360 5359 5360 5359 5357 5357 5358 5359
5412 5408 5406 5404 5402 5400 5398 5396 5394 5393 5391 5389 5386 5384 5382 5379 5376 5373 5369 5366 5364 5363 5361 5359 5356 5354 5353 5354 5354 5353 5351 5351 5350 5349 5347 5345 5347 5348
5409 5405 5402 5401 5399 5397 5395 5393 5391 5389 5387 5384 5382 5378 5375 5372 5369 5366 5363 5359 5357 5355 5353 5350 5346 5343 5341 5342 5348 5346 5343 5341 5339 5338 5336 5335 5335 5337
5405 5403 5400 5398 5396 5393 5391 5389 5388 5385 5382 5380 5377 5373 5370 5366 5362 5359 5356 5353 5351 5348 5345 5341 5338 5335 5334 5333 5333 5335 5334 5331 5329 5327 5326 5326 5326 5328
5402 5400 5398 5395 5393 5391 5389 5387 5384 5382 5379 5375 5372 5368 5365 5360 5357 5354 5351 5349 5346 5341 5338 5336 5335 5332 5328 5323 5322 5324 5324 5323 5321 5317 5315 5314 5315 5317
5399 5397 5395 5393 5390 5388 5386 5383 5380 5378 5375 5371 5368 5364 5361 5356 5353 5349 5346 5342 5340 5337 5334 5331 5327 5322 5318 5315 5316 5316 5315 5313 5312 5310 5308 5306 5304 5304
5395 5393 5392 5390 5387 5385 5382 5379 5377 5374 5371 5368 5364 5361 5356 5352 5349 5345 5342 5338 5334 5330 5326 5322 5318 5314 5312 5309 5307 5306 5304 5303 5302 5301 5300 5299 5299 5299